User: anonymous
Location: UBC Liquid-Mirror Observatory
(49.2876°N, 122.5728°W)
Time: 14:17:13
(UTC-07:00)
Language:

KITSAT 1 - Orbit

View from above orbital plane
View from above orbital plane
View from above satellite
View from above satellite

Ground track
Ground track

The orbit data is extracted from the following two-line orbital elements,

1 22077U 92052B   14245.46983931 -.00000024  00000-0  15113-3 0  7006
2 22077 066.0849 300.3882 0005253 200.3388 249.6982 12.86494205 36343
Epoch (UTC): 02 September 2014 11:16:34
Eccentricity: 0.0005253
inclination: 66.0849°
perigee height: 1311 km
apogee height: 1319 km
right ascension of ascending node: 300.3882°
argument of perigee: 200.3388°
revolutions per day: 12.86494205
mean anomaly at epoch: 249.6982°
orbit number at epoch: 3634

The dashed part of the orbit path shows where the satellite is in the earth's shadow,  

DLR